KITSAT B

Satellite information

Favourite Embed

Satellite Type and Status

PAYLOADIN ORBIT

Key statistics

Satellite KITSAT B at a glance.

Uptime

11766

Days in orbit

Revolutions

≈ 14.3

Per day

Orbit

SSO

Sun Synchronous Orbit

Inclination

98.7

Latest

Satellite identification and parameters

Extended collection of information and parameters for KITSAT B.

Object identification

Identified? True

Debris? False

Object name: KITSAT B

International designator: 1993-061F

Object number (NORAD): 22828

Object ID (CCSDS): 22828

Country: SOUTH KOREA (SKOR)

Current information (Y/N): Y

RCS size: MEDIUM

Orbital parameters

Period: 100.579 minutes

Inclination: 98.7124 deg

SMA: 7164.139 km

Apoapsis: 792.45 km

Periapsis: 779.557 km

RAAN: 48.1545 deg

Eccentricy: 0.00089982

Argument of periapsis: 232.1954 deg

Mean anomaly: 127.8415 deg

Mean motion: 14.31715664 rev/day

Mean motion (dot): 0.00000287 rev/day2

B* drag term: 0.00012435129 1/REarth

Two-line elements (TLE)

Creation date: Dec. 12, 2025, 10:14 a.m.

Reference frame: TEME

Reference center: EARTH

Epoch: Dec. 12, 2025, 3:44 a.m. UTC

TLE line 0: 0 KITSAT B

TLE line 1: 1 22828U 93061F 25346.15558289 .00000287 00000-0 12435-3 0 9999

TLE line 2: 2 22828 98.7124 48.1545 0008998 232.1954 127.8415 14.31715664649041

Live tracking on map

Real-time ground track for satellite KITSAT B.

In-orbit conjunctions

A list of the most updated potential collisions computed for object KITSAT B.

Target Orbit TCA Probability of collision Miss distance Type
FENGYUN 1C DEB SSO 2025-12-10 17:45:57 0.000109259 144.0 (m) DEBRIS
CZ-6A DEB LEO 2025-04-08 11:32:08 0.0001389833 98.0 (m) DEBRIS
COSMOS 1275 DEB LEO 2025-03-04 08:19:47 0.0002916961 900.0 (m) DEBRIS
FENGYUN 1C DEB SSO 2025-01-16 17:50:17 0.0001523628 865.0 (m) DEBRIS
FENGYUN 1C DEB SSO 2024-12-29 23:26:33 0.0001629037 333.0 (m) DEBRIS

Associated space launch

The satellites SPOT 1, 2 and 3 (Satellite Probatoire de l'Observation de la Terre) were the first generation of SPOT earth observation satellites operated by Spot Image.

KITSAT B was lifted into orbit during the mission ‘Ariane 40 | SPOT 3’, on board a Ariane 40 space rocket.

The launch took place on Sept. 26, 1993, 1:45 a.m. from Ariane Launch Area 2.

For more information about the launch, click the button.

Launch to space Ariane 40 | SPOT 3
Ariane 40 | SPOT 3

Agency: N/A

Status: Launch Successful

Launch date: Sept. 26, 1993, 1:45 a.m. UTC

Rocket: Ariane 40

Launch pad: Ariane Launch Area 2

Location: Guiana Space Centre, French Guiana

...

Latest news about this satellite

There are no fresh news available about this satellite. Check back as we update our databases every day.


Newsletter sign-up

Weekly statistics, charts and insights to help you stay on top of the space industry.